Location: Unspecified
(43.4354°N, 0.0000°E)
Time: 12:09:50
(UTC+00:00)

A-11 Canister half - Pass Details

Date: 24 June 2019
Orbit: 1514 x 1685 km, 47.2° (Epoch: 22 July)

Event Time Altitude Azimuth Distance (km) Brightness Sun altitude
Rises 14:51:15 0° 291° (WNW) 4,833 12.1 50.1°
Reaches altitude 10° 14:54:25 10° 291° (WNW) 3,822 11.8 49.5°
Maximum altitude 15:04:08 88° 204° (SSW) 1,566 10.0 47.8°
Drops below altitude 10° 15:13:30 10° 116° (ESE) 3,693 10.8 46.1°
Sets 15:16:29 0° 116° (ESE) 4,662 11.2 45.6°
